SCP
-0 -0 -0 -0 -0 -0 -0 -0 -0 -0 -0 -0 0 0 0 -0 -0 0 -0 0 0 0 0 0 0 0 0 0 -0 -0 0 0 0 0 -0 -0 0 0 0 0 0 1 0
-0 -0 -0 -0 -0 -0 -0 -0 -0 -0 -0 -0 0 -0 -0 -0 0 0 -0 -0 0 0 -0 -0 0 -0 0 -0 -0 0 -0 0 0 0 -0 -0 -0 0 0 0 1 1 1
-0 -0 -0 -0 -0 -0 -0 -0 -0 -0 -0 -0 -0 -0 -0 -0 0 0 0 -0 -0 0 -0 0 0 -0 0 -0 -0 0 0 0 0 0 0 0 0 -0 0 0 1 0 0
-0 -0 -0 -0 -1 -0 -0 -0 -0 -0 -0 0 -0 -0 -0 -0 0 -0 0 -0 -0 -0 -0 -0 -0 -0 0 0 0 0 0 0 0 0 0 0 0 0 0 0 1 0 0
-0 -0 -0 -0 -0 -0 -0 -0 -0 -0 -0 0 -0 -0 -0 -0 0 0 -0 -0 -0 -0 -0 0 0 0 0 0 0 0 -0 -0 0 0 0 0 0 0 0 0 0 0 0
-0 -0 -0 -0 -0 -0 -0 -0 -0 -0 -0 -0 0 -0 -0 -0 0 -0 0 0 0 0 0 0 0 0 0 -0 -0 -0 0 0 0 0 0 0 0 0 0 0 0 0 0
-0 -0 -0 -0 -0 -0 -0 -0 -0 -0 -0 0 -0 -0 -0 0 0 -0 -0 0 -0 -0 -0 0 0 -0 -0 0 0 0 0 0 0 0 0 0 0 0 0 0 0 0 0
-0 -0 -0 -0 -0 -0 -0 -0 -1 -0 -0 -0 -0 0 0 0 0 0 -0 -0 -0 -0 0 -0 -0 -0 0 0 0 0 0 0 0 0 1 1 0 1 0 0 0 0 0
0 -0 -0 -0 -0 -0 -0 -0 -1 -1 -1 -1 -0 -0 0 0 0 -0 -0 -0 0 -0 -0 0 -0 -0 0 0 0 0 0 0 0 0 1 1 1 1 1 0 0 0 0
0 -0 -0 -0 -0 -0 -0 -1 -2 -2 -1 -1 -1 -0 -0 -0 -0 -0 -0 -0 -0 -0 -0 -0 -0 0 0 0 0 0 0 0 0 1 1 1 1 1 1 1 0 1 1
0 0 0 -0 -0 -0 -0 -2 -2 -1 -1 -1 -1 -0 -0 -0 -0 0 -0 0 -0 0 0 0 0 0 0 0 0 0 0 0 0 0 1 1 1 2 2 1 0 0 1
0 -0 0 -0 0 -0 -0 -1 -1 -2 -1 -0 -0 0 0 0 0 -0 -0 -0 0 0 -0 -0 0 0 0 0 0 0 0 1 1 1 1 1 2 2 2 1 1 1 1
-0 -0 0 -0 -0 -1 -1 -1 -1 -1 0 0 0 0 1 1 1 1 1 0 0 0 -0 -0 -0 -0 -0 0 0 1 1 1 1 1 1 1 1 1 2 2 2 1 1
-0 -0 0 0 -0 -0 -0 -0 -0 -0 -0 -0 0 0 0 0 0 0 0 0 0 0 0 0 0 0 0 1 1 1 1 1 1 1 1 1 1 1 1 2 2 1 1
-0 0 0 -0 -0 -0 0 0 0 0 0 0 1 1 1 1 0 0 0 1 0 0 0 0 -0 0 0 1 0 1 2 3 2 2 2 1 2 1 2 3 2 1 2
0 0 0 0 0 0 0 1 1 1 0 0 0 0 0 0 0 0 0 0 -0 -0 0 0 0 0 1 0 0 0 0 0 1 1 1 2 2 1 1 1 2 2 2
0 0 0 0 0 0 0 0 0 0 0 0 0 0 0 0 0 0 -0 -0 1 1 1 0 0 0 0 0 0 0 0 0 0 0 1 1 2 2 2 1 2 2 2
0 0 0 0 0 0 0 0 0 0 0 0 0 0 0 0 0 0 0 0 0 0 0 0 0 0 0 0 0 0 0 0 0 0 0 1 1 2 3 2 1 1 0
0 0 0 0 0 0 0 0 0 0 0 0 0 0 0 0 0 0 0 0 0 0 0 0 0 0 0 0 0 0 0 0 0 0 0 0 0 2 1 4 2 2 1
0 0 0 0 0 0 0 0 0 0 0 0 0 0 0 0 0 0 0 0 0 0 0 0 0 0 0 0 0 0 0 0 0 0 0 0 1 0 2 3 4 3 1
0 0 0 0 0 0 0 0 0 0 0 0 0 0 0 0 0 0 0 0 0 0 0 0 0 0 0 0 0 0 0 0 0 0 0 0 1 0 0 0 0 3 1
0 0 0 0 0 0 0 0 0 0 0 0 0 0 0 0 0 0 0 0 0 0 0 0 0 0 0 0 0 0 0 0 0 0 0 0 0 0 0 0 0 0 1
0 0 0 0 0 0 0 0 0 0 0 0 0 0 0 0 0 0 0 0 0 0 0 0 0 0 0 0 0 0 0 0 0 0 0 0 0 0 0 0 0 0 0
0 0 0 0 0 0 0 0 0 0 0 0 0 0 0 0 0 0 0 0 0 0 0 0 0 0 0 0 0 0 0 0 0 0 0 0 0 0 0 0 0 0 0
0 0 0 0 0 0 0 0 0 0 0 0 0 0 0 0 0 0 0 0 0 0 0 0 0 0 0 0 0 0 0 0 0 0 0 0 0 0 0 0 0 0 0
0 0 0 0 0 0 0 0 0 0 0 0 0 0 0 0 0 0 0 0 0 0 0 0 0 0 0 0 0 0 0 0 0 0 0 0 0 0 0 0 0 0 0
Wind_Speed_500mb
57 55 50 48 48 51 46 41 39 38 28 29 28 33 23 20 16 13 21 14 6 2 11 7 9 10 11 13 20 13 19 19 23 30 23 21 15 5 13 18 12 17 19
63 63 58 58 56 51 40 46 42 36 31 29 25 23 22 15 25 23 16 18 16 7 13 11 9 13 0 14 28 22 12 16 15 21 24 15 13 2 16 11 12 22 23
75 72 65 64 61 54 43 42 47 44 35 30 26 22 24 22 10 16 17 20 17 9 14 11 9 12 10 18 27 17 11 19 10 15 16 10 10 23 7 13 17 25 29
81 80 73 72 67 56 43 35 41 44 37 33 29 29 28 31 28 14 29 26 18 14 14 16 9 8 7 9 6 13 14 15 15 16 16 17 16 16 7 4 16 23 23
88 88 81 76 68 58 51 41 36 39 37 36 42 34 26 21 22 14 12 12 27 17 13 20 24 18 7 9 11 10 10 18 14 16 12 14 19 20 14 14 13 14 24
86 87 82 76 67 60 55 47 35 40 39 39 41 43 34 28 27 23 22 20 20 22 24 32 23 20 24 15 13 16 24 21 18 15 13 14 18 19 17 19 10 21 20
87 88 84 80 71 67 63 56 46 40 40 38 40 43 43 33 31 33 29 29 25 21 22 21 29 27 25 21 24 24 29 16 18 19 21 21 16 15 23 35 22 25 26
78 86 84 80 71 67 67 64 59 49 42 41 36 38 44 43 32 34 38 30 30 21 18 2 15 20 22 33 28 28 32 24 22 28 29 24 8 15 24 25 32 26 19
57 83 80 74 65 59 60 66 55 55 43 36 39 35 34 41 35 28 21 16 20 27 25 14 19 27 33 27 24 26 28 28 28 29 28 27 20 21 18 21 22 30 22
69 74 77 70 68 54 56 61 52 45 37 30 36 37 33 31 29 26 26 25 24 24 29 36 38 39 39 37 35 32 33 33 32 33 35 32 34 30 26 26 25 22 29
58 55 47 63 62 57 58 62 51 45 39 33 37 36 33 31 28 32 35 36 35 35 41 46 49 47 41 35 32 33 33 34 32 29 29 30 29 33 28 24 30 33 34
57 25 22 14 63 63 60 63 56 52 43 29 23 18 7 11 12 12 14 20 28 34 37 38 39 36 30 27 26 28 29 31 30 30 33 37 37 37 37 27 27 34 29
76 64 39 12 37 43 39 46 56 55 36 30 26 38 30 29 24 19 21 27 32 39 44 42 39 36 31 28 27 24 21 23 24 25 30 32 30 33 34 32 33 35 32
73 50 42 51 59 63 62 67 64 57 57 55 46 44 38 31 24 23 23 29 29 32 34 33 35 37 26 24 26 22 17 18 20 24 27 31 32 31 32 35 36 36 42
67 60 53 55 55 58 58 58 57 51 45 42 36 32 28 28 18 5 5 9 20 25 38 42 40 35 29 32 32 19 17 20 26 36 39 38 37 35 34 39 42 43 40
50 46 44 41 43 44 42 39 36 35 30 33 35 33 23 24 14 27 37 37 41 38 31 46 34 28 24 35 30 33 31 30 29 31 32 36 37 36 37 38 44 42 46
52 51 49 44 38 28 19 19 16 17 15 18 23 25 13 25 35 51 82 66 52 47 31 43 46 41 37 36 35 36 36 41 46 43 42 41 35 31 35 41 44 45 47
48 44 32 27 27 35 31 27 20 14 15 11 4 4 13 20 10 23 22 27 30 41 48 52 55 54 53 50 51 50 55 59 59 58 54 45 42 36 40 41 44 48 47
37 27 28 31 28 23 25 20 17 12 9 4 7 13 16 19 16 16 25 33 41 45 47 50 53 54 55 53 55 61 66 66 65 60 54 48 36 38 44 48 51 48 49
31 31 25 22 26 23 17 21 14 10 7 9 15 19 25 29 31 32 34 36 39 46 54 59 59 61 63 60 59 57 58 60 57 49 42 36 32 39 43 46 51 54 50
35 28 30 26 18 13 8 10 9 11 14 19 24 26 28 30 32 35 39 45 49 53 56 58 57 56 52 50 44 39 40 45 49 45 43 41 44 48 48 47 53 58 53
34 23 21 15 7 2 5 6 9 15 22 25 25 27 31 33 37 39 40 40 43 47 50 52 53 50 47 40 46 45 46 49 63 63 59 52 49 50 49 39 44 52 64
33 26 21 15 6 3 11 13 17 23 28 32 36 39 38 37 32 30 34 39 39 42 46 47 46 41 35 33 32 39 37 42 50 45 34 34 29 21 15 26 34 42 52
25 14 9 5 3 8 14 14 16 22 30 35 33 37 33 33 30 27 39 43 43 49 56 61 61 59 54 52 58 64 63 54 47 42 31 32 29 39 39 36 39 49 50
13 5 3 6 5 9 13 20 26 31 36 37 38 39 40 42 42 38 41 48 50 51 53 54 58 60 66 64 42 53 59 64 59 58 59 62 58 53 53 50 43 55 58
10 8 2 7 11 19 24 28 33 37 43 46 43 45 48 49 49 44 45 39 51 47 49 47 48 45 44 45 47 54 52 57 62 64 58 53 56 56 54 54 57 64 68
Wind_Direction_500mb
189 182 181 185 182 187 192 197 198 206 212 188 186 179 191 192 216 228 226 237 330 76 258 290 2 277 322 287 323 346 352 359 358 10 57 48 55 285 321 309 335 335 345
189 182 181 187 190 190 197 190 200 208 214 199 178 172 180 234 244 244 239 251 279 234 269 263 317 352 126 329 316 306 307 8 4 4 10 11 72 81 327 328 293 315 327
184 180 182 188 191 193 200 200 200 211 216 208 185 212 236 242 188 172 215 230 256 204 236 284 287 297 323 329 336 287 319 343 357 353 340 334 358 349 11 330 302 298 311
185 179 182 186 191 197 206 210 207 210 214 208 193 217 240 230 227 248 236 251 262 233 231 249 276 307 350 329 271 267 319 325 311 351 353 321 340 349 317 300 298 283 303
181 180 182 188 194 199 204 210 212 215 211 210 207 210 219 219 197 262 254 241 242 258 273 257 256 270 309 297 303 281 290 307 327 331 333 307 345 344 315 6 265 286 300
180 184 184 186 192 201 204 207 209 217 222 215 210 212 216 231 217 224 229 241 248 282 283 272 240 251 274 280 281 279 287 309 322 326 332 327 316 327 319 341 343 332 309
174 181 183 187 191 199 203 207 211 211 212 220 215 212 216 220 219 230 221 229 229 254 299 300 240 243 268 287 292 289 301 311 313 320 322 331 311 304 317 322 319 325 312
171 181 186 190 190 198 206 212 215 215 215 217 221 214 215 224 226 232 232 236 240 245 295 323 224 242 280 300 298 285 291 297 303 303 306 317 289 306 325 341 344 322 302
221 185 185 191 191 197 206 210 218 217 219 222 223 216 214 223 235 238 227 229 239 254 276 276 238 256 278 288 298 289 289 286 289 296 297 298 297 293 312 316 312 335 322
202 179 184 190 195 197 201 213 217 213 217 220 219 220 221 224 229 224 223 234 224 229 246 251 262 270 278 286 287 282 285 286 283 288 294 289 290 295 296 281 284 312 315
158 160 169 194 198 195 197 206 209 209 216 224 223 219 223 232 232 233 238 242 247 250 255 260 266 272 276 277 276 276 279 281 285 286 285 290 297 295 294 295 293 306 311
114 88 0 244 198 195 196 199 204 212 212 213 212 199 219 239 275 281 284 283 269 263 264 267 270 274 277 284 286 285 281 282 286 293 293 291 287 285 298 303 285 265 292
149 162 229 151 173 174 174 188 195 196 183 166 179 200 194 197 200 204 228 246 263 275 278 278 277 278 284 294 297 297 297 298 296 298 298 299 301 294 282 294 288 295 269
131 144 132 111 120 119 131 138 140 158 166 168 164 162 170 180 199 226 245 263 285 281 278 280 283 274 268 268 262 261 269 283 290 301 301 301 297 299 293 285 284 286 282
130 131 119 107 108 112 117 121 124 134 146 162 169 184 194 203 202 211 314 345 357 335 350 304 301 274 287 272 277 301 271 279 287 292 292 294 297 292 286 283 283 285 284
105 110 111 114 113 111 115 116 112 111 125 135 133 126 125 115 72 349 327 315 327 313 287 303 308 308 289 297 301 306 299 291 288 293 298 294 289 287 279 277 273 275 275
114 113 115 112 107 104 118 114 104 99 86 99 122 140 186 274 276 266 273 292 269 277 277 289 298 301 297 295 293 294 294 297 300 297 296 297 291 285 282 275 275 271 273
127 123 116 114 108 112 111 113 111 99 100 104 104 346 355 13 336 288 280 267 282 273 289 293 294 294 296 299 297 294 295 298 300 300 300 297 296 284 276 280 276 275 276
135 126 120 117 121 111 108 102 93 92 89 31 305 295 301 308 307 284 276 279 281 283 286 288 290 292 294 297 296 295 297 298 299 301 301 304 290 272 268 268 272 276 269
134 134 135 136 113 94 116 122 116 136 164 229 267 286 294 298 300 303 299 295 296 298 297 298 299 299 298 296 295 295 296 294 296 298 298 298 293 285 279 275 268 265 272
128 145 144 133 132 164 177 165 191 228 250 265 278 288 292 295 300 301 301 300 299 300 300 302 303 306 308 310 309 304 298 297 296 294 294 291 293 302 304 276 252 261 269
137 137 126 119 104 296 302 300 294 285 290 295 301 302 303 304 305 304 304 306 310 314 315 318 320 323 327 325 316 303 294 290 291 285 284 282 290 296 305 278 264 252 254
130 121 122 121 127 287 306 307 309 306 304 306 307 308 311 315 316 315 316 317 318 317 313 309 303 306 307 298 298 310 330 310 292 293 284 280 283 269 304 329 301 270 254
138 136 124 111 26 321 307 304 297 296 299 303 309 313 320 324 320 306 303 307 305 294 289 289 292 295 290 289 282 290 296 298 296 304 293 280 283 290 295 307 313 296 271
128 131 20 19 332 291 299 300 296 295 294 294 301 302 304 299 297 297 296 298 297 305 307 298 298 297 302 291 296 287 286 291 294 299 289 282 284 288 287 291 291 304 286
71 83 153 256 276 281 281 283 287 290 294 298 302 303 304 301 300 301 306 304 300 309 314 299 302 297 305 313 289 288 292 295 298 294 292 290 284 284 279 280 285 293 282
Wind_Speed_850mb
57 55 50 48 48 51 46 41 39 38 28 29 28 33 23 20 16 13 21 14 6 2 11 7 9 10 11 13 20 13 19 19 23 30 23 21 15 5 13 18 12 17 19
63 63 58 58 56 51 40 46 42 36 31 29 25 23 22 15 25 23 16 18 16 7 13 11 9 13 0 14 28 22 12 16 15 21 24 15 13 2 16 11 12 22 23
75 72 65 64 61 54 43 42 47 44 35 30 26 22 24 22 10 16 17 20 17 9 14 11 9 12 10 18 27 17 11 19 10 15 16 10 10 23 7 13 17 25 29
81 80 73 72 67 56 43 35 41 44 37 33 29 29 28 31 28 14 29 26 18 14 14 16 9 8 7 9 6 13 14 15 15 16 16 17 16 16 7 4 16 23 23
88 88 81 76 68 58 51 41 36 39 37 36 42 34 26 21 22 14 12 12 27 17 13 20 24 18 7 9 11 10 10 18 14 16 12 14 19 20 14 14 13 14 24
86 87 82 76 67 60 55 47 35 40 39 39 41 43 34 28 27 23 22 20 20 22 24 32 23 20 24 15 13 16 24 21 18 15 13 14 18 19 17 19 10 21 20
87 88 84 80 71 67 63 56 46 40 40 38 40 43 43 33 31 33 29 29 25 21 22 21 29 27 25 21 24 24 29 16 18 19 21 21 16 15 23 35 22 25 26
78 86 84 80 71 67 67 64 59 49 42 41 36 38 44 43 32 34 38 30 30 21 18 2 15 20 22 33 28 28 32 24 22 28 29 24 8 15 24 25 32 26 19
57 83 80 74 65 59 60 66 55 55 43 36 39 35 34 41 35 28 21 16 20 27 25 14 19 27 33 27 24 26 28 28 28 29 28 27 20 21 18 21 22 30 22
69 74 77 70 68 54 56 61 52 45 37 30 36 37 33 31 29 26 26 25 24 24 29 36 38 39 39 37 35 32 33 33 32 33 35 32 34 30 26 26 25 22 29
58 55 47 63 62 57 58 62 51 45 39 33 37 36 33 31 28 32 35 36 35 35 41 46 49 47 41 35 32 33 33 34 32 29 29 30 29 33 28 24 30 33 34
57 25 22 14 63 63 60 63 56 52 43 29 23 18 7 11 12 12 14 20 28 34 37 38 39 36 30 27 26 28 29 31 30 30 33 37 37 37 37 27 27 34 29
76 64 39 12 37 43 39 46 56 55 36 30 26 38 30 29 24 19 21 27 32 39 44 42 39 36 31 28 27 24 21 23 24 25 30 32 30 33 34 32 33 35 32
73 50 42 51 59 63 62 67 64 57 57 55 46 44 38 31 24 23 23 29 29 32 34 33 35 37 26 24 26 22 17 18 20 24 27 31 32 31 32 35 36 36 42
67 60 53 55 55 58 58 58 57 51 45 42 36 32 28 28 18 5 5 9 20 25 38 42 40 35 29 32 32 19 17 20 26 36 39 38 37 35 34 39 42 43 40
50 46 44 41 43 44 42 39 36 35 30 33 35 33 23 24 14 27 37 37 41 38 31 46 34 28 24 35 30 33 31 30 29 31 32 36 37 36 37 38 44 42 46
52 51 49 44 38 28 19 19 16 17 15 18 23 25 13 25 35 51 82 66 52 47 31 43 46 41 37 36 35 36 36 41 46 43 42 41 35 31 35 41 44 45 47
48 44 32 27 27 35 31 27 20 14 15 11 4 4 13 20 10 23 22 27 30 41 48 52 55 54 53 50 51 50 55 59 59 58 54 45 42 36 40 41 44 48 47
37 27 28 31 28 23 25 20 17 12 9 4 7 13 16 19 16 16 25 33 41 45 47 50 53 54 55 53 55 61 66 66 65 60 54 48 36 38 44 48 51 48 49
31 31 25 22 26 23 17 21 14 10 7 9 15 19 25 29 31 32 34 36 39 46 54 59 59 61 63 60 59 57 58 60 57 49 42 36 32 39 43 46 51 54 50
35 28 30 26 18 13 8 10 9 11 14 19 24 26 28 30 32 35 39 45 49 53 56 58 57 56 52 50 44 39 40 45 49 45 43 41 44 48 48 47 53 58 53
34 23 21 15 7 2 5 6 9 15 22 25 25 27 31 33 37 39 40 40 43 47 50 52 53 50 47 40 46 45 46 49 63 63 59 52 49 50 49 39 44 52 64
33 26 21 15 6 3 11 13 17 23 28 32 36 39 38 37 32 30 34 39 39 42 46 47 46 41 35 33 32 39 37 42 50 45 34 34 29 21 15 26 34 42 52
25 14 9 5 3 8 14 14 16 22 30 35 33 37 33 33 30 27 39 43 43 49 56 61 61 59 54 52 58 64 63 54 47 42 31 32 29 39 39 36 39 49 50
13 5 3 6 5 9 13 20 26 31 36 37 38 39 40 42 42 38 41 48 50 51 53 54 58 60 66 64 42 53 59 64 59 58 59 62 58 53 53 50 43 55 58
10 8 2 7 11 19 24 28 33 37 43 46 43 45 48 49 49 44 45 39 51 47 49 47 48 45 44 45 47 54 52 57 62 64 58 53 56 56 54 54 57 64 68
Wind_Direction_850mb
189 182 181 185 182 187 192 197 198 206 212 188 186 179 191 192 216 228 226 237 330 76 258 290 2 277 322 287 323 346 352 359 358 10 57 48 55 285 321 309 335 335 345
189 182 181 187 190 190 197 190 200 208 214 199 178 172 180 234 244 244 239 251 279 234 269 263 317 352 126 329 316 306 307 8 4 4 10 11 72 81 327 328 293 315 327
184 180 182 188 191 193 200 200 200 211 216 208 185 212 236 242 188 172 215 230 256 204 236 284 287 297 323 329 336 287 319 343 357 353 340 334 358 349 11 330 302 298 311
185 179 182 186 191 197 206 210 207 210 214 208 193 217 240 230 227 248 236 251 262 233 231 249 276 307 350 329 271 267 319 325 311 351 353 321 340 349 317 300 298 283 303
181 180 182 188 194 199 204 210 212 215 211 210 207 210 219 219 197 262 254 241 242 258 273 257 256 270 309 297 303 281 290 307 327 331 333 307 345 344 315 6 265 286 300
180 184 184 186 192 201 204 207 209 217 222 215 210 212 216 231 217 224 229 241 248 282 283 272 240 251 274 280 281 279 287 309 322 326 332 327 316 327 319 341 343 332 309
174 181 183 187 191 199 203 207 211 211 212 220 215 212 216 220 219 230 221 229 229 254 299 300 240 243 268 287 292 289 301 311 313 320 322 331 311 304 317 322 319 325 312
171 181 186 190 190 198 206 212 215 215 215 217 221 214 215 224 226 232 232 236 240 245 295 323 224 242 280 300 298 285 291 297 303 303 306 317 289 306 325 341 344 322 302
221 185 185 191 191 197 206 210 218 217 219 222 223 216 214 223 235 238 227 229 239 254 276 276 238 256 278 288 298 289 289 286 289 296 297 298 297 293 312 316 312 335 322
202 179 184 190 195 197 201 213 217 213 217 220 219 220 221 224 229 224 223 234 224 229 246 251 262 270 278 286 287 282 285 286 283 288 294 289 290 295 296 281 284 312 315
158 160 169 194 198 195 197 206 209 209 216 224 223 219 223 232 232 233 238 242 247 250 255 260 266 272 276 277 276 276 279 281 285 286 285 290 297 295 294 295 293 306 311
114 88 0 244 198 195 196 199 204 212 212 213 212 199 219 239 275 281 284 283 269 263 264 267 270 274 277 284 286 285 281 282 286 293 293 291 287 285 298 303 285 265 292
149 162 229 151 173 174 174 188 195 196 183 166 179 200 194 197 200 204 228 246 263 275 278 278 277 278 284 294 297 297 297 298 296 298 298 299 301 294 282 294 288 295 269
131 144 132 111 120 119 131 138 140 158 166 168 164 162 170 180 199 226 245 263 285 281 278 280 283 274 268 268 262 261 269 283 290 301 301 301 297 299 293 285 284 286 282
130 131 119 107 108 112 117 121 124 134 146 162 169 184 194 203 202 211 314 345 357 335 350 304 301 274 287 272 277 301 271 279 287 292 292 294 297 292 286 283 283 285 284
105 110 111 114 113 111 115 116 112 111 125 135 133 126 125 115 72 349 327 315 327 313 287 303 308 308 289 297 301 306 299 291 288 293 298 294 289 287 279 277 273 275 275
114 113 115 112 107 104 118 114 104 99 86 99 122 140 186 274 276 266 273 292 269 277 277 289 298 301 297 295 293 294 294 297 300 297 296 297 291 285 282 275 275 271 273
127 123 116 114 108 112 111 113 111 99 100 104 104 346 355 13 336 288 280 267 282 273 289 293 294 294 296 299 297 294 295 298 300 300 300 297 296 284 276 280 276 275 276
135 126 120 117 121 111 108 102 93 92 89 31 305 295 301 308 307 284 276 279 281 283 286 288 290 292 294 297 296 295 297 298 299 301 301 304 290 272 268 268 272 276 269
134 134 135 136 113 94 116 122 116 136 164 229 267 286 294 298 300 303 299 295 296 298 297 298 299 299 298 296 295 295 296 294 296 298 298 298 293 285 279 275 268 265 272
128 145 144 133 132 164 177 165 191 228 250 265 278 288 292 295 300 301 301 300 299 300 300 302 303 306 308 310 309 304 298 297 296 294 294 291 293 302 304 276 252 261 269
137 137 126 119 104 296 302 300 294 285 290 295 301 302 303 304 305 304 304 306 310 314 315 318 320 323 327 325 316 303 294 290 291 285 284 282 290 296 305 278 264 252 254
130 121 122 121 127 287 306 307 309 306 304 306 307 308 311 315 316 315 316 317 318 317 313 309 303 306 307 298 298 310 330 310 292 293 284 280 283 269 304 329 301 270 254
138 136 124 111 26 321 307 304 297 296 299 303 309 313 320 324 320 306 303 307 305 294 289 289 292 295 290 289 282 290 296 298 296 304 293 280 283 290 295 307 313 296 271
128 131 20 19 332 291 299 300 296 295 294 294 301 302 304 299 297 297 296 298 297 305 307 298 298 297 302 291 296 287 286 291 294 299 289 282 284 288 287 291 291 304 286
71 83 153 256 276 281 281 283 287 290 294 298 302 303 304 301 300 301 306 304 300 309 314 299 302 297 305 313 289 288 292 295 298 294 292 290 284 284 279 280 285 293 282